Location: Caltech
(34.1382°N, 118.1253°W)
Time: 05:04:30
(UTC-07:00)

Cosmos 2084 - Visible Passes

Search period start: 28 May 2015 00:00
Search period end: 07 June 2015 00:00
Orbit: 543 x 650 km, 62.8° (Epoch: 27 May)

Date Brightness Start Highest point End Pass type
(mag) Time Alt. Az. Time Alt. Az. Time Alt. Az.
28 May 6.3 01:28:56 12° NNW 01:28:56 12° NNW 01:29:51 10° NNW visible
29 May 6.1 00:01:24 15° NNE 00:01:24 15° NNE 00:02:14 10° NNE visible
30 May 5.9 00:10:20 19° N 00:10:20 19° N 00:11:55 10° N visible
31 May 6.0 00:19:08 17° NW 00:19:08 17° NW 00:21:12 10° N visible
31 May 5.3 22:51:08 22° NE 22:51:08 22° NE 22:52:40 10° NNE visible
01 Jun 4.5 22:59:24 41° NNW 22:59:24 41° NNW 23:02:32 10° NNE visible
02 Jun 4.9 21:30:36 19° E 21:30:36 19° E 21:32:27 10° ENE visible
02 Jun 5.4 23:07:05 20° W 23:08:38 26° NW 23:12:07 10° N visible
03 Jun 3.5 21:37:04 26° S 21:38:57 48° ESE 21:42:56 10° NE visible
03 Jun 6.3 23:16:29 10° W 23:18:54 15° NW 23:21:12 10° N visible
04 Jun 3.3 21:44:49 10° SW 21:48:52 80° WNW 21:53:01 10° NNE visible
05 Jun 4.8 21:55:04 10° SW 21:58:54 39° NW 22:02:48 10° NNE visible
06 Jun 4.1 20:25:54 10° S 20:29:24 29° ESE 20:33:02 10° NE visible
06 Jun 6.0 22:05:51 10° W 22:09:03 21° NW 22:12:15 10° N visible
